EW9755 Weather Reports


time (UTC)temp
F
wind
direction
speed
knots
gust
knots
rain 1hr
in
rain 24hr
in
rain mn
in
humidity
%
barometer
mb
20260510190540 80 75 9.6 15.6 0.00 0.00 0.00 86 1013.7
20260510185900 80 87 10.4 16.5 0.00 0.00 0.00 88 1013.7
20260510185220 79 89 12.2 17.4 0.00 0.00 0.00 88 1013.7
20260510184542 80 96 13.9 16.5 0.00 0.00 0.00 85 1013.7
20260510183900 80 79 9.6 14.8 0.00 0.00 0.00 87 1013.7
20260510183433 79 66 10.4 15.6 0.00 0.00 0.00 87 1013.7
20260510182540 79 70 9.6 13.9 0.00 0.00 0.00 89 1013.7
20260510181859 79 77 9.6 14.8 0.00 0.00 0.00 88 1014.1
20260510181219 79 63 9.6 13.0 0.00 0.00 0.00 88 1014.1
20260510180540 79 66 10.4 14.8 0.00 0.00 0.00 88 1014.1
20260510175859 80 66 10.4 14.8 0.00 0.00 0.00 86 1014.1
20260510175220 80 69 8.7 13.0 0.00 0.00 0.00 88 1014.4
20260510174539 79 77 8.7 13.0 0.00 0.00 0.00 87 1014.4
20260510173859 80 78 8.7 13.9 0.00 0.00 0.00 87 1014.4
20260510173429 79 59 11.3 13.9 0.00 0.00 0.00 87 1014.4
20260510172749 79 73 8.7 13.9 0.00 0.00 0.00 87 1014.4
20260510171859 79 65 10.4 13.9 0.00 0.00 0.00 89 1014.4
20260510171219 79 67 10.4 13.0 0.00 0.00 0.00 89 1014.8
20260510170751 79 75 9.6 13.9 0.00 0.00 0.00 87 1014.4
20260510165901 80 68 8.7 13.0 0.00 0.00 0.00 86 1014.4
20260510165219 79 63 10.4 13.0 0.00 0.00 0.00 88 1014.8
20260510164539 80 74 9.6 13.0 0.00 0.00 0.00 86 1014.8
20260510163859 79 69 8.7 13.0 0.00 0.00 0.00 87 1014.8
20260510163429 79 64 9.6 13.0 0.00 0.00 0.00 88 1014.8
20260510162539 79 58 9.6 13.0 0.00 0.00 0.00 87 1014.8
20260510161901 80 62 8.7 13.9 0.00 0.00 0.00 87 1014.8
20260510161219 80 48 11.3 13.0 0.00 0.00 0.00 85 1014.4
20260510160752 80 68 8.7 13.0 0.00 0.00 0.00 81 1014.4
20260510155859 80 52 11.3 13.0 0.00 0.00 0.00 82 1014.4
20260510155219 80 57 7.8 11.3 0.00 0.00 0.00 84 1014.4
20260510154748 80 55 8.7 12.2 0.00 0.00 0.00 87 1014.4
20260510153859 79 62 9.6 13.0 0.00 0.00 0.00 87 1014.4
20260510153219 79 60 9.6 13.9 0.00 0.00 0.00 86 1014.4
20260510152750 79 47 11.3 13.9 0.00 0.00 0.00 88 1014.8
20260510151859 79 57 9.6 13.9 0.00 0.00 0.00 90 1014.8
20260510151432 78 55 11.3 13.9 0.00 0.00 0.00 88 1014.8
20260510150539 78 50 11.3 13.9 0.00 0.00 0.00 89 1014.8
20260510145900 79 48 9.6 13.9 0.00 0.00 0.00 88 1014.8
20260510145434 78 45 8.7 13.9 0.00 0.00 0.00 91 1014.8
20260510144749 78 45 9.6 12.2 0.00 0.00 0.00 90 1014.8
20260510143900 78 53 7.8 11.3 0.00 0.00 0.00 91 1014.8
20260510143220 78 44 7.8 10.4 0.00 0.00 0.00 92 1014.4
20260510142751 78 52 7.0 12.2 0.00 0.00 0.00 92 1014.4
20260510141900 78 54 7.8 11.3 0.00 0.00 0.00 92 1014.4
20260510141220 78 55 7.0 10.4 0.00 0.00 0.00 92 1014.1
20260510140540 78 53 7.0 9.6 0.00 0.00 0.00 93 1014.1
20260510135900 78 69 4.3 9.6 0.00 0.00 0.00 93 1014.1
20260510135220 78 99 3.5 10.4 0.00 0.00 0.00 93 1013.7
20260510134750 77 109 7.8 13.0 0.00 0.00 0.00 93 1013.7
20260510133900 77 122 10.4 11.3 0.00 0.00 0.00 95 1013.4
20260510133220 77 123 8.7 9.6 0.00 0.00 0.00 95 1013.4
20260510132541 77 124 7.0 9.6 0.00 0.00 0.00 96 1013.1
20260510131900 76 127 7.0 12.2 0.00 0.00 0.00 96 1013.1
20260510131433 76 127 8.7 12.2 0.00 0.00 0.00 97 1013.1
20260510130540 76 130 5.2 9.6 0.00 0.00 0.00 97 1012.7
20260510125900 76 125 7.0 9.6 0.00 0.00 0.00 98 1012.7
20260510125220 76 127 7.8 9.6 0.00 0.00 0.00 98 1012.7
20260510124540 76 129 5.2 10.4 0.00 0.00 0.00 98 1012.7
20260510123900 76 124 4.3 7.8 0.00 0.00 0.00 98 1012.4
20260510123432 76 130 5.2 8.7 0.00 0.00 0.00 98 1012.4
20260510122541 76 125 7.0 8.7 0.00 0.00 0.00 98 1012.4
20260510122113 76 123 7.0 8.7 0.00 0.00 0.00 98 1012.0
20260510121220 76 123 6.1 7.8 0.00 0.00 0.00 98 1012.0
20260510120540 76 127 5.2 7.8 0.00 0.00 0.00 98 1012.0
20260510115900 76 133 6.1 7.8 0.00 0.00 0.00 98 1012.0
20260510115430 76 139 5.2 8.7 0.00 0.00 0.00 99 1011.7
20260510114540 76 138 5.2 8.7 0.00 0.00 0.00 98 1011.7
20260510113901 76 136 7.0 10.4 0.00 0.00 0.00 98 1011.7
20260510113220 76 138 7.8 11.3 0.00 0.00 0.00 98 1011.7
20260510112540 76 140 7.8 12.2 0.00 0.00 0.00 98 1011.4
20260510112114 76 135 7.8 13.0 0.00 0.00 0.00 98 1011.4
20260510111220 76 137 9.6 13.0 0.00 0.00 0.00 98 1011.4
20260510110540 76 136 8.7 13.0 0.00 0.00 0.00 98 1011.0
20260510105900 76 136 9.6 14.8 0.00 0.00 0.00 98 1011.0
20260510105220 76 135 10.4 14.8 0.00 0.00 0.00 98 1011.0
20260510104540 76 136 12.2 14.8 0.00 0.00 0.00 98 1011.0
20260510103900 76 133 10.4 15.6 0.00 0.00 0.00 98 1011.0
20260510103220 76 133 11.3 15.6 0.00 0.00 0.00 98 1011.0
20260510102540 76 130 11.3 16.5 0.00 0.00 0.00 97 1011.0
20260510102109 76 132 11.3 16.5 0.00 0.00 0.00 97 1011.0
20260510101430 76 131 12.2 15.6 0.00 0.00 0.00 97 1011.0
20260510100540 76 130 9.6 14.8 0.00 0.00 0.00 97 1011.0
20260510100111 76 127 10.4 14.8 0.00 0.00 0.00 97 1011.0
20260510095220 76 128 10.4 14.8 0.00 0.00 0.00 97 1011.0
20260510094542 76 123 11.3 15.6 0.00 0.00 0.00 96 1011.0
20260510093900 76 120 12.2 16.5 0.00 0.00 0.00 96 1011.0
20260510093220 76 122 13.0 16.5 0.00 0.00 0.00 96 1011.0
20260510092540 76 120 12.2 16.5 0.00 0.00 0.00 96 1011.0
20260510091900 76 115 13.0 18.2 0.00 0.00 0.00 96 1011.0
20260510091220 76 109 15.6 18.2 0.00 0.00 0.00 95 1011.0
20260510090541 76 117 9.6 16.5 0.00 0.00 0.00 96 1011.0
20260510090112 76 116 12.2 17.4 0.00 0.00 0.00 96 1011.0
20260510085222 76 108 13.0 17.4 0.00 0.00 0.00 95 1011.0
20260510084540 76 112 13.9 19.1 0.00 0.00 0.00 96 1011.0
20260510083900 76 110 13.9 17.4 0.00 0.00 0.00 96 1011.0
20260510083220 76 118 12.2 17.4 0.00 0.00 0.00 96 1011.0
20260510082540 76 121 12.2 17.4 0.00 0.00 0.00 96 1011.0
20260510081900 76 120 13.0 19.1 0.00 0.00 0.00 95 1011.0
20260510081431 76 120 13.0 19.1 0.00 0.00 0.00 95 1011.0
20260510080540 76 116 13.9 20.0 0.00 0.00 0.00 95 1011.0
20260510075900 76 109 14.8 20.0 0.00 0.00 0.00 95 1011.0
20260510075220 76 110 15.6 19.1 0.00 0.00 0.00 95 1011.0
20260510074540 76 116 13.9 21.7 0.00 0.00 0.00 95 1010.7
20260510073901 76 109 17.4 21.7 0.00 0.00 0.00 94 1010.7
20260510073220 76 112 14.8 19.1 0.00 0.00 0.00 94 1010.7
20260510072540 76 116 14.8 24.3 0.00 0.00 0.00 94 1011.0
20260510071900 77 110 18.2 25.2 0.00 0.00 0.00 93 1010.7
20260510071220 77 112 18.2 21.7 0.00 0.00 0.00 93 1011.0
20260510070752 77 109 16.5 22.6 0.00 0.00 0.00 92 1011.0
20260510065900 77 110 13.0 18.2 0.00 0.00 0.00 93 1011.0
20260510065220 77 98 12.2 19.1 0.00 0.00 0.00 93 1011.0
20260510064540 77 104 12.2 20.0 0.00 0.00 0.00 91 1011.4
20260510063900 77 106 11.3 17.4 0.00 0.00 0.00 92 1011.0
20260510063220 76 96 13.0 17.4 0.00 0.00 0.00 92 1011.4
20260510062540 76 84 11.3 17.4 0.00 0.00 0.00 91 1011.7
20260510062112 76 85 10.4 15.6 0.00 0.00 0.00 90 1011.7
20260510061221 76 88 10.4 15.6 0.00 0.00 0.00 90 1012.0
20260510060540 77 87 10.4 15.6 0.00 0.00 0.00 90 1012.0
20260510055900 77 74 9.6 17.4 0.00 0.00 0.00 89 1012.0
20260510055220 77 84 10.4 17.4 0.00 0.00 0.00 90 1012.0
20260510054540 77 81 7.8 12.2 0.00 0.00 0.00 90 1012.0
20260510053900 77 78 7.0 13.9 0.00 0.00 0.00 90 1012.0
20260510053220 77 80 8.7 15.6 0.00 0.00 0.00 90 1011.7
20260510052752 77 81 9.6 15.6 0.00 0.00 0.00 90 1011.7
20260510051900 77 75 8.7 14.8 0.00 0.00 0.00 90 1011.7
20260510051220 77 86 8.7 14.8 0.00 0.00 0.00 90 1011.7
20260510050542 77 91 11.3 17.4 0.00 0.00 0.00 90 1011.7
20260510045900 77 94 12.2 18.2 0.00 0.00 0.00 90 1011.7
20260510045220 77 94 11.3 18.2 0.00 0.00 0.00 90 1011.7
20260510044751 77 87 10.4 13.9 0.00 0.00 0.00 89 1011.7
20260510043900 77 83 7.0 11.3 0.00 0.00 0.00 88 1012.0
20260510043221 77 63 7.0 12.2 0.00 0.00 0.00 87 1012.0
20260510042540 77 74 6.1 12.2 0.00 0.00 0.00 86 1012.0
20260510041900 77 64 7.8 12.2 0.00 0.00 0.00 85 1012.0
20260510041220 77 69 7.8 11.3 0.00 0.00 0.00 84 1012.0
20260510040541 77 59 9.6 13.0 0.00 0.00 0.00 83 1012.0
20260510035900 77 75 7.8 13.0 0.00 0.00 0.00 82 1012.0
20260510035220 77 59 9.6 13.9 0.00 0.00 0.00 82 1012.0
20260510034540 77 58 9.6 15.6 0.00 0.00 0.00 82 1012.0
20260510033900 77 82 8.7 15.6 0.00 0.00 0.00 82 1011.7
20260510033221 77 76 7.8 13.0 0.00 0.00 0.00 82 1011.7
20260510032540 77 78 7.8 12.2 0.00 0.00 0.00 82 1011.7
20260510031900 77 85 7.8 12.2 0.00 0.00 0.00 84 1011.7
20260510031220 77 66 7.8 11.3 0.00 0.00 0.00 82 1011.7
20260510030540 78 63 7.8 11.3 0.00 0.00 0.00 81 1011.7
20260510025900 77 76 7.8 12.2 0.00 0.00 0.00 82 1011.4
20260510025221 77 73 7.0 11.3 0.00 0.00 0.00 83 1011.4
20260510024540 77 77 7.0 11.3 0.00 0.00 0.00 85 1011.0
20260510023900 77 70 5.2 10.4 0.00 0.00 0.00 85 1011.0
20260510023220 78 66 7.0 11.3 0.00 0.00 0.00 84 1011.0
20260510022540 78 68 7.0 11.3 0.00 0.00 0.00 81 1011.0
20260510021900 78 82 7.0 16.5 0.00 0.00 0.00 81 1010.7
20260510021220 78 107 13.9 16.5 0.00 0.00 0.00 75 1010.3
20260510020540 78 126 12.2 17.4 0.00 0.00 0.00 82 1010.0
20260510015900 78 132 13.9 17.4 0.00 0.00 0.00 82 1009.7
20260510015220 78 126 10.4 16.5 0.00 0.00 0.00 80 1009.7
20260510014540 78 127 13.0 16.5 0.00 0.00 0.00 80 1009.7
20260510013902 78 122 10.4 16.5 0.00 0.00 0.00 81 1009.7
20260510013220 78 125 13.0 16.5 0.00 0.00 0.00 81 1009.3
20260510012540 78 130 12.2 15.6 0.00 0.00 0.00 79 1009.3
20260510011900 79 126 12.2 15.6 0.00 0.00 0.00 76 1009.3
20260510011220 79 128 11.3 13.9 0.00 0.00 0.00 76 1009.3
20260510010540 79 127 11.3 13.0 0.00 0.00 0.00 75 1009.3
20260510005900 79 131 9.6 13.9 0.00 0.00 0.00 74 1009.3
20260510005220 80 127 10.4 17.4 0.00 0.00 0.00 73 1009.3
20260510004540 80 126 13.0 16.5 0.00 0.00 0.00 68 1009.3
20260510003900 80 123 13.0 16.5 0.00 0.00 0.00 69 1009.3
20260510003429 81 122 11.3 16.5 0.00 0.00 0.00 66 1009.3
20260510002540 81 122 13.9 18.2 0.00 0.00 0.00 63 1009.0
20260510001900 81 119 15.6 17.4 0.00 0.00 0.00 63 1009.3
20260510001220 81 122 12.2 15.6 0.00 0.00 0.00 62 1009.0
20260510000752 82 123 11.3 14.8 0.00 0.00 0.00 60 1009.0
20260509235901 82 121 11.3 15.6 0.00 0.00 0.00 65 1009.0
20260509235433 81 122 12.2 17.4 0.00 0.00 0.00 64 1009.0
20260509234540 82 122 13.0 17.4 0.00 0.00 0.00 67 1009.0
20260509234109 82 123 12.2 17.4 0.00 0.00 0.00 64 1009.3
20260509233220 82 120 13.0 18.2 0.00 0.00 0.00 60 1009.0
20260509232540 82 120 13.0 16.5 0.00 0.00 0.00 60 1009.3
20260509231901 82 119 13.0 15.6 0.00 0.00 0.00 60 1009.0
20260509231220 81 120 12.2 15.6 0.00 0.00 0.00 64 1009.0
20260509230540 81 122 13.0 15.6 0.00 0.00 0.00 74 1009.0
20260509225900 82 126 11.3 15.6 0.00 0.00 0.00 71 1009.0
20260509225220 83 119 9.6 13.0 0.00 0.00 0.00 62 1008.6
20260509224749 83 121 9.6 13.0 0.00 0.00 0.00 60 1009.0
20260509223900 84 119 10.4 13.0 0.00 0.00 0.00 57 1008.6
20260509223220 84 110 7.8 9.6 0.00 0.00 0.00 56 1008.6
20260509222540 84 111 7.0 9.6 0.00 0.00 0.00 55 1008.6
20260509222112 85 119 7.0 8.7 0.00 0.00 0.00 56 1008.6
20260509221220 85 115 6.1 8.7 0.00 0.00 0.00 60 1008.6
20260509220540 84 109 7.0 9.6 0.00 0.00 0.00 58 1008.6
20260509220114 84 110 7.0 9.6 0.00 0.00 0.00 61 1008.6
20260509215429 82 103 8.7 11.3 0.00 0.00 0.00 71 1008.6
20260509214750 82 99 10.4 11.3 0.00 0.00 0.00 69 1008.6
20260509213900 83 101 8.7 10.4 0.00 0.00 0.00 68 1008.6
20260509213220 83 97 8.7 10.4 0.00 0.00 0.00 66 1008.6
20260509212541 84 105 7.8 10.4 0.00 0.00 0.00 68 1008.6
20260509211900 84 100 7.8 10.4 0.00 0.00 0.00 67 1008.6
20260509211222 83 95 8.7 11.3 0.00 0.00 0.00 69 1008.6
20260509210540 84 96 7.8 9.6 0.00 0.00 0.00 69 1008.6
20260509205900 84 71 6.1 9.6 0.00 0.00 0.00 70 1008.6
20260509205220 84 91 7.0 11.3 0.00 0.00 0.00 68 1008.3
20260509204750 83 97 9.6 11.3 0.00 0.00 0.00 69 1008.3
20260509204111 83 91 7.0 9.6 0.00 0.00 0.00 67 1008.3
20260509203220 84 79 5.2 7.8 0.00 0.00 0.00 68 1008.6
20260509202540 83 72 5.2 8.7 0.00 0.00 0.00 67 1008.3
20260509201900 83 77 6.1 8.7 0.00 0.00 0.00 69 1008.6
20260509201220 84 83 6.1 8.7 0.00 0.00 0.00 66 1008.6
20260509200540 84 64 5.2 8.7 0.00 0.00 0.00 66 1008.6
20260509195900 83 68 6.1 9.6 0.00 0.00 0.00 67 1009.0
20260509195220 84 99 7.8 10.4 0.00 0.00 0.00 70 1009.0
20260509194540 85 82 5.2 9.6 0.00 0.00 0.00 65 1009.0
20260509193901 84 70 5.2 8.7 0.00 0.00 0.00 66 1009.3
20260509193432 85 74 4.3 9.6 0.00 0.00 0.00 63 1009.3
20260509192540 86 72 3.5 9.6 0.00 0.00 0.00 64 1009.3
20260509191900 86 18 0.9 3.5 0.00 0.00 0.00 55 1009.7
20260509191220 85 6 1.7 5.2 0.00 0.00 0.00 57 1009.7